Tracking 19193 objects as of 22-Jun-2018
HD Live streaming from Space Station
objects crossing your sky now

FLOCK 2K 19

Track FLOCK 2K 19 now!
10-day predictions
FLOCK 2K 19 is classified as:


NORAD ID: 42886
Int'l Code: 2017-042BP
Perigee: 452.6 km
Apogee: 472.4 km
Inclination: 97.0 °
Period: 93.7 minutes
Semi major axis: 6833 km
RCS: Unknown
Launch date: July 14, 2017
Source: United States (US)
Launch site: TYURATAM MISSILE AND SPACE COMPLEX (TTMTR)
aabbcc
Your satellite tracking list
Your tracking list is empty




NASA's NSSDC Master Catalog

Two Line Element Set (TLE):
1 42886U 17042BP  18172.88929035 +.00002159 +00000-0 +61794-4 0  9993
2 42886 096.9803 069.3193 0014515 085.4214 274.8689 15.36875946052360
Source of the keplerian elements: AFSPC